[[{"header":{"parameterUnit":"m.s-1","parameterCategory":2,"la1":30.2991,"la2":30.254,"lo1":-89.0895,"lo2":-89.0444,"dy":0.0017,"dx":0.0017,"nx":28,"ny":28,"refTime":"2024-04-23T09:00:00:Z","depth":"0","parameterNumber":2,"parameterNumberName":"U-component_of_CURRENTS"},"data":[0,0,0,0,0,0,0,0,0,0,0,0,0,0,0,0,0,0,0,0,0,0,0,0,0,0,0,0,0,0,0,0,0,0,0,0,0,0,0,0,0,0,0,0,0,0,0,0,0,0,0,0,0,0,0,0,0,0,0.3437,0.3437,0,0.3447,0.3447,0.3447,0.3403,0.3402,0.3401,0.3401,0.3416,0.3417,0.3419,0,0,0,0,0,0,0,0,0,0,0,0,0,0.3389,0.339,0.3436,0.3437,0.3438,0.3447,0.3447,0.3446,0.3403,0.3402,0.3401,0.34,0.3416,0.3417,0.3419,0,0,0,0,0,0,0,0,0,0,0,0,0,0.3401,0.339,0.3436,0.3421,0.3421,0.3447,0.3447,0.3446,0.3403,0.3402,0.3401,0.34,0.3416,0.3417,0.3419,0.3452,0,0,0.3424,0.3425,0,0,0,0,0,0,0,0,0.34,0.3401,0.3423,0.3423,0.3422,0.3428,0.3436,0.3451,0.3404,0.3404,0.3401,0.3399,0.3425,0.3426,0.3422,0.3453,0.3454,0.3424,0.3425,0.3426,0.3426,0,0,0,0,0,0,0,0.3399,0.3401,0.3435,0.3424,0.3423,0.3419,0.3418,0.3438,0.3416,0.3404,0.3402,0.3413,0.3424,0.3421,0.3423,0.3454,0.3424,0.3426,0.3427,0.3427,0.3554,0.3556,0,0,0,0,0,0,0.341,0.34,0.3435,0.3436,0.3414,0.3421,0.342,0.3422,0.3416,0.3416,0.3414,0.3411,0.3418,0.3421,0.3423,0.3504,0.3426,0.3428,0.3429,0.3552,0.3555,0.3557,0,0,0,0,0,0,0.3409,0.3413,0.3434,0.3423,0.3426,0.3423,0.3426,0.3423,0.3426,0.3425,0.3423,0.342,0.3418,0.3421,0.3453,0.3503,0.3428,0.343,0.3549,0.3553,0.3556,0.364,0,0,0,0,0,0,0.3407,0.3412,0.3421,0.3424,0.3428,0.3471,0.3428,0.3424,0.3437,0.3433,0.343,0.343,0.3417,0.3451,0.3455,0.3504,0.3431,0.3546,0.3551,0.3555,0.3634,0.3645,0.3655,0,0,0,0,0,0.3405,0.3428,0.3421,0.3426,0.3439,0.3474,0.3475,0.3464,0.3438,0.3457,0.3448,0.343,0.3482,0.3454,0.3458,0.3509,0.3544,0.3549,0.3555,0.3629,0.3643,0.3655,0,0,0,0,0,0,0.3421,0.3427,0.3419,0.3443,0.3466,0.3469,0.3487,0.3476,0.3482,0.3478,0.3456,0.3457,0.3506,0.3499,0.3468,0.356,0.3513,0.3519,0.3568,0.3581,0.3592,0.3661,0.3433,0,0,0,0,0,0.3429,0.3444,0.3455,0.3481,0.349,0.3488,0.35,0.35,0.3506,0.3506,0.3503,0.3509,0.3533,0.3547,0.3564,0.3614,0.3662,0.3651,0.3662,0.3671,0.3732,0.3822,0.3847,0.3575,0.3575,0.3574,0,0,0.3445,0.3452,0.3461,0.3486,0.3494,0.3533,0.3491,0.3525,0.3569,0.3511,0.3559,0.3549,0.3554,0.3607,0.363,0.3606,0.3775,0.3678,0.3685,0.3743,0.383,0.3857,0.3881,0.3578,0.3578,0.3577,0,0,0.3491,0.3489,0.3514,0.3541,0.3571,0.3578,0.3592,0.3606,0.3619,0.3659,0.3637,0.3672,0.3679,0.3718,0.3731,0.3821,0.3828,0.3803,0.3918,0.4003,0.4027,0.4049,0.415,0.418,0.3809,0.381,0.381,0,0.3507,0.3539,0.3534,0.3576,0.3606,0.3602,0.365,0.3679,0.3706,0.3735,0.3688,0.375,0.3751,0.3848,0.3879,0.3853,0.3897,0.386,0.402,0.4042,0.4063,0.4162,0.4194,0.3814,0.3814,0.3813,0.3813,0,0.3573,0.3605,0.3629,0.3673,0.3711,0.3756,0.3795,0.3835,0.3831,0.3854,0.393,0.3931,0.3977,0.3972,0.3955,0.4103,0.4085,0.4019,0.3988,0.4096,0.4192,0.4224,0.3821,0.3819,0.3818,0.3817,0,0,0.3584,0.3655,0.3664,0.3702,0.3764,0.3804,0.3889,0.3963,0.4037,0.405,0.4145,0.4186,0.4183,0.4205,0.4188,0.4267,0.4445,0.4215,0.4217,0.4323,0.4654,0.4545,0.4568,0.4387,0.4393,0.4398,0.4664,0,0.363,0.3714,0.3744,0.3842,0.3887,0.3928,0.4014,0.4091,0.4139,0.4235,0.4264,0.4342,0.4272,0.4303,0.4376,0.443,0.4533,0.4382,0.4532,0.4539,0.4432,0.4603,0.4323,0.4528,0.4695,0.4701,0.4705,0,0.3682,0.3728,0.3817,0.3924,0.3949,0.4016,0.4149,0.423,0.4366,0.4406,0.4488,0.4512,0.4658,0.456,0.4751,0.4648,0.4692,0.4719,0.4727,0.4631,0.449,0.4447,0.458,0.4416,0.4754,0.475,0.4746,0,0.3691,0.3787,0.3854,0.389,0.4008,0.4069,0.4139,0.4276,0.4369,0.4537,0.462,0.4746,0.4836,0.4909,0.4954,0.4876,0.5147,0.5034,0.4992,0.4985,0.4788,0.4752,0.4789,0.5209,0.5209,0.5208,0.5207,0,0.3737,0.3799,0.3861,0.391,0.4012,0.4089,0.4232,0.4324,0.4485,0.4615,0.4712,0.4838,0.4928,0.5056,0.5068,0.5147,0.5244,0.5094,0.507,0.4806,0.477,0.4647,0.4581,0.5218,0.5216,0.5214,0.5212,0,0.3773,0.3802,0.3889,0.399,0.4023,0.4103,0.4267,0.438,0.4525,0.4708,0.4773,0.4974,0.5137,0.5211,0.5366,0.5301,0.5215,0.5368,0.5063,0.4997,0.4749,0.4698,0.4675,0.4552,0.5394,0.5394,0.5393,0,0.3798,0.3841,0.3937,0.3974,0.4025,0.4138,0.4229,0.4382,0.4496,0.4769,0.4857,0.509,0.5198,0.5394,0.5332,0.5377,0.5222,0.5163,0.4964,0.4774,0.4702,0.4544,0.443,0.4753,0.4747,0.4742,0.4738,0,0.3851,0.3881,0.3957,0.4015,0.4089,0.4186,0.4313,0.4401,0.4589,0.4725,0.4914,0.5027,0.5191,0.5096,0.5149,0.5128,0.4873,0.5065,0.4945,0.4306,0.4065,0.3916,0.4562,0.4696,0.47,0.4703,0.4705,0.4707,0.3879,0.3933,0.3995,0.4044,0.4119,0.4186,0.4212,0.4347,0.4472,0.4561,0.479,0.4804,0.4803,0.481,0.4784,0.4537,0.46,0.4355,0.4353,0.4245,0.3983,0.4557,0.459,0.4593,0.4596,0.4599,0.4601,0,0.3858,0.3921,0.4001,0.4027,0.4039,0.4106,0.4215,0.4179,0.4213,0.4333,0.4395,0.4298,0.4191,0.4174,0.4005,0.3831,0.3657,0.3729,0.3427,0.3385,0.396,0.3779,0.3539,0.3539,0.3539,0.3539,0.354,0.354,0.3853,0.3893,0.3922,0.389,0.3902,0.385,0.3857,0.3826,0.3852,0.3734,0.3623,0.3634,0.3699,0.3605,0.3396,0.3306,0.3072,0.2897,0.299,0.3346,0.3402,0.3455,0.3268,0.2925,0.2924,0.2207,0.2202,0.2197]},{"header":{"parameterUnit":"m.s-1","parameterCategory":2,"la1":30.2991,"la2":30.254,"lo1":-89.0895,"lo2":-89.0444,"dy":0.0017,"dx":0.0017,"nx":28,"ny":28,"refTime":"2024-04-23T09:00:00:Z","depth":"0","parameterNumber":3,"parameterNumberName":"V-component_of_CURRENTS"},"data":[0,0,0,0,0,0,0,0,0,0,0,0,0,0,0,0,0,0,0,0,0,0,0,0,0,0,0,0,0,0,0,0,0,0,0,0,0,0,0,0,0,0,0,0,0,0,0,0,0,0,0,0,0,0,0,0,0,0,0.0315,0.0314,0,0.0249,0.0248,0.0247,0.0199,0.0198,0.0198,0.0198,0.0115,0.0113,0.0111,0,0,0,0,0,0,0,0,0,0,0,0,0,0.0336,0.0336,0.0315,0.0314,0.0314,0.0249,0.0248,0.0246,0.0199,0.0198,0.0198,0.0198,0.0116,0.0114,0.0111,0,0,0,0,0,0,0,0,0,0,0,0,0,0.0302,0.0336,0.0315,0.0284,0.0281,0.0249,0.0248,0.0246,0.0199,0.0198,0.0198,0.0198,0.0117,0.0114,0.0111,0.0098,0,0,0.0102,0.01,0,0,0,0,0,0,0,0,0.0304,0.0301,0.0289,0.0286,0.0282,0.0234,0.0225,0.0197,0.0199,0.0227,0.0198,0.0198,0.0155,0.0149,0.0134,0.0094,0.009,0.0101,0.0099,0.0098,0.0097,0,0,0,0,0,0,0,0.0306,0.0303,0.0286,0.0288,0.0284,0.0251,0.0246,0.0219,0.0191,0.0225,0.0222,0.0218,0.0153,0.0137,0.0132,0.0089,0.0101,0.0099,0.0097,0.0096,0.0055,0.0055,0,0,0,0,0,0,0.0323,0.0306,0.0288,0.0285,0.0295,0.0251,0.0246,0.0248,0.0192,0.0184,0.0218,0.0216,0.0142,0.0135,0.0129,0.0146,0.0098,0.0095,0.0094,0.0054,0.0055,0.0056,0,0,0,0,0,0,0.0324,0.0322,0.0291,0.0295,0.0289,0.0252,0.0254,0.0246,0.0236,0.0188,0.0179,0.0216,0.0142,0.0133,0.0114,0.0141,0.0094,0.0091,0.0053,0.0054,0.0055,0.0157,0,0,0,0,0,0,0.0325,0.0323,0.0328,0.0296,0.0289,0.0288,0.0254,0.0245,0.0235,0.0231,0.0183,0.0175,0.0141,0.0118,0.0111,0.0136,0.0089,0.0052,0.0054,0.0055,0.0153,0.0161,0.0169,0,0,0,0,0,0.0326,0.0341,0.0329,0.0327,0.0299,0.0289,0.0282,0.0252,0.0235,0.0239,0.0205,0.0176,0.0122,0.0117,0.0107,0.0132,0.0051,0.0053,0.0055,0.0149,0.016,0.0169,0,0,0,0,0,0,0.0352,0.0336,0.0323,0.0332,0.0318,0.0282,0.0281,0.026,0.0235,0.0229,0.0182,0.0172,0.0165,0.0132,0.0127,0.0123,0.0083,0.0083,0.0158,0.0168,0.0176,0.0224,0.0086,0,0,0,0,0,0.0362,0.0369,0.0347,0.0355,0.0349,0.0316,0.0306,0.0289,0.0262,0.025,0.0218,0.0184,0.0163,0.0153,0.0123,0.0121,0.0114,0.0131,0.0139,0.0147,0.0179,0.0186,0.0198,0.0061,0.0061,0.0061,0,0,0.0373,0.0367,0.037,0.0361,0.0343,0.0353,0.0309,0.0304,0.0317,0.0246,0.0249,0.0209,0.0167,0.0165,0.0159,0.0143,0.018,0.0149,0.0155,0.0185,0.0189,0.0203,0.0215,0.0062,0.0062,0.0062,0,0,0.0409,0.0396,0.0416,0.0413,0.04,0.0381,0.0386,0.0357,0.0348,0.034,0.0299,0.0286,0.0238,0.0231,0.0216,0.0253,0.0219,0.023,0.0317,0.0323,0.0335,0.0346,0.0354,0.0364,0.0239,0.024,0.024,0,0.0422,0.0451,0.0421,0.0443,0.0454,0.0402,0.0434,0.0417,0.0387,0.0397,0.0355,0.0321,0.028,0.0305,0.0314,0.0277,0.0269,0.0285,0.0337,0.0347,0.0356,0.0362,0.0372,0.0245,0.0244,0.0244,0.0243,0,0.0477,0.0502,0.0515,0.053,0.0534,0.0551,0.0531,0.0532,0.0506,0.0492,0.05,0.0444,0.0436,0.0411,0.0372,0.042,0.039,0.0344,0.032,0.0377,0.0378,0.0387,0.0252,0.025,0.0249,0.0247,0,0,0.051,0.0547,0.0556,0.0588,0.0587,0.06,0.0624,0.0642,0.0676,0.0631,0.0681,0.0632,0.0605,0.0589,0.0539,0.0541,0.0586,0.0478,0.0476,0.0501,0.0604,0.056,0.0565,0.0544,0.0546,0.0547,0.0579,0,0.0566,0.0639,0.0641,0.0712,0.0748,0.0729,0.0764,0.0772,0.076,0.0789,0.0746,0.076,0.0671,0.0675,0.0664,0.0612,0.0615,0.0583,0.0533,0.0532,0.0499,0.0576,0.0536,0.0559,0.0587,0.0589,0.059,0,0.0628,0.0672,0.0755,0.0824,0.0839,0.0873,0.0931,0.0955,0.0973,0.0969,0.0972,0.093,0.0944,0.0846,0.0811,0.0792,0.0719,0.0663,0.0662,0.06,0.0506,0.0504,0.0574,0.0396,0.0603,0.0602,0.0601,0,0.0681,0.0758,0.0833,0.0854,0.0913,0.0957,0.0987,0.1016,0.1058,0.1095,0.1136,0.1112,0.1133,0.104,0.0923,0.0873,0.0875,0.0786,0.0681,0.0677,0.0626,0.0614,0.0535,0.0769,0.0769,0.0769,0.0769,0,0.075,0.0815,0.0868,0.0912,0.1012,0.1027,0.1126,0.115,0.1205,0.1294,0.1241,0.1318,0.1183,0.1153,0.1005,0.0895,0.0942,0.0734,0.0696,0.0657,0.0648,0.0474,0.0372,0.077,0.077,0.0769,0.0769,0,0.0809,0.0839,0.0929,0.1007,0.104,0.1111,0.1212,0.1279,0.1327,0.1447,0.1474,0.15,0.1484,0.1328,0.121,0.103,0.0798,0.084,0.0808,0.0765,0.047,0.0375,0.0289,0.0221,0.0735,0.0735,0.0734,0,0.085,0.0903,0.0997,0.1051,0.1095,0.1195,0.1267,0.1332,0.1415,0.1573,0.1648,0.1686,0.1745,0.1553,0.1256,0.1014,0.0826,0.0779,0.0669,0.0486,0.0353,0.0285,0.0229,0.064,0.0639,0.0638,0.0637,0,0.0931,0.0956,0.1023,0.1131,0.1216,0.132,0.1435,0.1522,0.1631,0.1771,0.1963,0.2035,0.1867,0.1641,0.1282,0.1072,0.064,0.0748,0.0572,0.0302,0.0214,0.0118,0.0585,0.0628,0.0629,0.0629,0.063,0.063,0.0979,0.1037,0.1113,0.1221,0.1314,0.1443,0.1556,0.1703,0.1891,0.2121,0.2176,0.2326,0.1942,0.1473,0.1174,0.0566,0.0595,0.0353,0.0266,0.0225,0.0123,0.0575,0.0556,0.0556,0.0557,0.0557,0.0558,0,0.1032,0.11,0.1201,0.1322,0.1429,0.1474,0.1667,0.1806,0.2064,0.2276,0.246,0.2337,0.1861,0.1342,0.0536,0.014,0.0002,-0.0071,-0.0187,-0.0212,0.0202,0.0157,0.0035,0.0035,0.0035,0.0035,0.0035,0.0035,0.1058,0.1157,0.1214,0.1396,0.1487,0.1664,0.1786,0.2018,0.221,0.2471,0.2555,0.2578,0.214,0.0789,-0.0127,-0.0328,-0.0549,-0.0615,-0.0696,-0.0455,-0.0422,-0.0392,-0.0457,-0.0706,-0.0707,-0.108,-0.1084,-0.1087]}],[{"header":{"parameterUnit":"m.s-1","parameterCategory":2,"la1":30.2991,"la2":30.254,"lo1":-89.0895,"lo2":-89.0444,"dy":0.0017,"dx":0.0017,"nx":28,"ny":28,"refTime":"2024-04-23T09:00:00:Z","depth":"2","parameterNumber":2,"parameterNumberName":"U-component_of_CURRENTS"},"data":[0,0,0,0,0,0,0,0,0,0,0,0,0,0,0,0,0,0,0,0,0,0,0,0,0,0,0,0,0,0,0,0,0,0,0,0,0,0,0,0,0,0,0,0,0,0,0,0,0,0,0,0,0,0,0,0,0,0,0.2667,0.2668,0,0.2693,0.2693,0.2693,0.2691,0.2691,0.2691,0.2691,0.2715,0.2716,0.2717,0,0,0,0,0,0,0,0,0,0,0,0,0,0.2634,0.2634,0.2667,0.2668,0.2669,0.2693,0.2693,0.2693,0.2691,0.2691,0.2691,0.2691,0.2715,0.2716,0.2717,0,0,0,0,0,0,0,0,0,0,0,0,0,0.2648,0.2634,0.2667,0.2674,0.2676,0.2693,0.2693,0.2693,0.2691,0.2691,0.2691,0.2691,0.2715,0.2716,0.2717,0.272,0,0,0.2719,0.272,0,0,0,0,0,0,0,0,0.2647,0.2649,0.2673,0.2674,0.2676,0.2693,0.269,0.2703,0.2691,0.268,0.2691,0.2691,0.2711,0.2712,0.271,0.2721,0.2722,0.272,0.272,0.272,0.2721,0,0,0,0,0,0,0,0.2646,0.2648,0.2673,0.2674,0.2675,0.2682,0.2684,0.2692,0.2691,0.2681,0.2682,0.2693,0.2711,0.2709,0.2711,0.2723,0.2719,0.272,0.2721,0.2721,0.2819,0.2821,0,0,0,0,0,0,0.2652,0.2647,0.2672,0.2674,0.2667,0.2683,0.2685,0.2683,0.2691,0.2694,0.2693,0.2693,0.2708,0.271,0.2712,0.2778,0.272,0.2721,0.2722,0.2817,0.2819,0.2821,0,0,0,0,0,0,0.265,0.2653,0.2671,0.2665,0.2669,0.2684,0.2683,0.2684,0.2696,0.2701,0.2702,0.2705,0.2708,0.271,0.2741,0.2776,0.2722,0.2722,0.2814,0.2817,0.282,0.2871,0,0,0,0,0,0,0.2649,0.2652,0.2658,0.2665,0.2669,0.2696,0.2683,0.2685,0.2704,0.2704,0.2712,0.2713,0.2708,0.2739,0.2741,0.2777,0.2723,0.2811,0.2816,0.2819,0.2867,0.2875,0.2883,0,0,0,0,0,0.2648,0.2659,0.2658,0.2662,0.2675,0.2697,0.27,0.2708,0.2705,0.2716,0.2726,0.2714,0.2766,0.2741,0.2743,0.278,0.281,0.2814,0.2819,0.2863,0.2874,0.2883,0,0,0,0,0,0,0.2654,0.2661,0.2659,0.2674,0.2691,0.2699,0.2712,0.2717,0.2732,0.2737,0.2731,0.2734,0.2784,0.2774,0.2747,0.2823,0.2789,0.2795,0.2823,0.2832,0.284,0.2884,0.2724,0,0,0,0,0,0.2657,0.2663,0.2675,0.269,0.2696,0.2705,0.2716,0.2727,0.2741,0.2747,0.2756,0.2773,0.2803,0.281,0.2835,0.2861,0.2896,0.289,0.2898,0.2905,0.2944,0.3026,0.3046,0.2837,0.2836,0.2836,0,0,0.2658,0.2671,0.2671,0.2692,0.2699,0.2728,0.2711,0.2738,0.2772,0.2748,0.2794,0.2808,0.2821,0.2864,0.2884,0.2857,0.2981,0.2911,0.2916,0.2953,0.3033,0.3054,0.3072,0.284,0.2839,0.2839,0,0,0.268,0.2679,0.2694,0.2711,0.274,0.2754,0.2767,0.2787,0.2803,0.2844,0.285,0.2894,0.2911,0.2944,0.2957,0.3027,0.3032,0.3022,0.3084,0.3161,0.318,0.3196,0.3254,0.3276,0.3012,0.3012,0.3012,0,0.2688,0.2706,0.2705,0.2734,0.2755,0.277,0.2801,0.2826,0.2861,0.2891,0.2871,0.2954,0.2962,0.3035,0.3064,0.3049,0.3083,0.3037,0.3173,0.319,0.3206,0.3262,0.3285,0.3015,0.3014,0.3014,0.3014,0,0.2721,0.274,0.2753,0.2791,0.2817,0.2847,0.2882,0.2919,0.294,0.2974,0.305,0.3064,0.312,0.3121,0.3114,0.3228,0.3212,0.3182,0.3146,0.3231,0.3283,0.3306,0.3019,0.3018,0.3017,0.3016,0,0,0.2723,0.2765,0.2774,0.2793,0.2848,0.2873,0.294,0.3007,0.3059,0.3103,0.3171,0.3236,0.3256,0.3277,0.3271,0.3328,0.3463,0.3306,0.3308,0.3362,0.363,0.348,0.349,0.3448,0.3453,0.3457,0.3616,0,0.2749,0.2805,0.2827,0.2886,0.2907,0.2948,0.3007,0.3077,0.3128,0.3201,0.3249,0.3321,0.3308,0.3335,0.3402,0.3465,0.3529,0.3423,0.3544,0.3549,0.3404,0.3514,0.3221,0.3326,0.3638,0.3642,0.3645,0,0.2771,0.2807,0.2866,0.2919,0.2934,0.2986,0.3081,0.3138,0.3251,0.3289,0.3379,0.3419,0.355,0.3494,0.3678,0.361,0.3646,0.367,0.3675,0.3543,0.3442,0.3297,0.3356,0.3683,0.368,0.3677,0.3675,0,0.2766,0.2827,0.2877,0.2897,0.2973,0.3019,0.3072,0.3178,0.3233,0.3366,0.3417,0.3561,0.362,0.3733,0.3802,0.3766,0.3962,0.3911,0.3808,0.3797,0.3579,0.354,0.4039,0.4039,0.4039,0.4038,0.4038,0,0.2775,0.2807,0.2879,0.291,0.297,0.3025,0.3107,0.318,0.3287,0.336,0.3471,0.3549,0.3684,0.3791,0.3862,0.3915,0.4026,0.3866,0.3846,0.3583,0.3544,0.3873,0.3852,0.4044,0.4043,0.4042,0.4041,0,0.2739,0.28,0.2849,0.2939,0.2969,0.3014,0.311,0.3154,0.3276,0.3371,0.3424,0.3586,0.3749,0.3844,0.4008,0.3957,0.4042,0.4012,0.3682,0.3619,0.3816,0.3796,0.3965,0.3962,0.3959,0.3956,0.3954,0,0.2724,0.2742,0.2851,0.2885,0.2926,0.2993,0.3025,0.3142,0.318,0.3388,0.3417,0.3611,0.37,0.3874,0.3864,0.3944,0.4021,0.3646,0.3523,0.3855,0.3819,0.3803,0.3787,0.3263,0.3255,0.3249,0.3244,0,0.2662,0.2708,0.2752,0.283,0.288,0.2908,0.2965,0.2985,0.3115,0.3209,0.3345,0.3459,0.3611,0.3552,0.3595,0.3599,0.3619,0.3518,0.3996,0.3299,0.3197,0.3159,0.3166,0.3188,0.3194,0.3198,0.3201,0.3203,0.2608,0.2613,0.2686,0.2736,0.2791,0.2787,0.2761,0.2821,0.2873,0.2954,0.3147,0.3209,0.327,0.3218,0.3153,0.3089,0.3341,0.3179,0.3197,0.3222,0.3085,0.298,0.2906,0.291,0.2913,0.2916,0.2918,0,0.2533,0.2542,0.2575,0.2638,0.2621,0.2688,0.2683,0.2612,0.2606,0.2737,0.2828,0.264,0.2625,0.2727,0.2543,0.2516,0.2482,0.2416,0.2359,0.2417,0.2468,0.2289,0.1902,0.1898,0.1895,0.1892,0,0,0.2506,0.2476,0.2473,0.2425,0.2458,0.2377,0.2323,0.2279,0.2309,0.2271,0.2301,0.2508,0.2634,0.2226,0.2175,0.2014,0.2192,0.1929,0.2754,0.2747,0.2793,0.2927,0.272,0,0,0,0,0]},{"header":{"parameterUnit":"m.s-1","parameterCategory":2,"la1":30.2991,"la2":30.254,"lo1":-89.0895,"lo2":-89.0444,"dy":0.0017,"dx":0.0017,"nx":28,"ny":28,"refTime":"2024-04-23T09:00:00:Z","depth":"2","parameterNumber":3,"parameterNumberName":"V-component_of_CURRENTS"},"data":[0,0,0,0,0,0,0,0,0,0,0,0,0,0,0,0,0,0,0,0,0,0,0,0,0,0,0,0,0,0,0,0,0,0,0,0,0,0,0,0,0,0,0,0,0,0,0,0,0,0,0,0,0,0,0,0,0,0,0.0148,0.0148,0,0.0098,0.0097,0.0096,0.0063,0.0063,0.0063,0.0063,-0.0003,-0.0004,-0.0006,0,0,0,0,0,0,0,0,0,0,0,0,0,0.017,0.017,0.0148,0.0148,0.0147,0.0098,0.0097,0.0096,0.0063,0.0063,0.0063,0.0063,-0.0002,-0.0004,-0.0006,0,0,0,0,0,0,0,0,0,0,0,0,0,0.0144,0.017,0.0148,0.0125,0.0122,0.0098,0.0097,0.0096,0.0063,0.0063,0.0063,0.0063,-0.0002,-0.0004,-0.0006,-0.0016,0,0,-0.0013,-0.0015,0,0,0,0,0,0,0,0,0.0145,0.0143,0.0129,0.0127,0.0124,0.0087,0.0081,0.0058,0.0063,0.0085,0.0063,0.0062,0.0026,0.0022,0.0012,-0.0019,-0.0022,-0.0014,-0.0015,-0.0016,-0.0017,0,0,0,0,0,0,0,0.0147,0.0145,0.0127,0.0128,0.0125,0.0101,0.0098,0.0076,0.0057,0.0083,0.0081,0.0076,0.0025,0.0015,0.001,-0.0023,-0.0014,-0.0016,-0.0017,-0.0018,-0.0056,-0.0056,0,0,0,0,0,0,0.0157,0.0147,0.0129,0.0126,0.0135,0.0101,0.0097,0.0098,0.0057,0.0051,0.0076,0.0075,0.0019,0.0013,0.0008,0.0012,-0.0016,-0.0018,-0.002,-0.0057,-0.0056,-0.0056,0,0,0,0,0,0,0.0158,0.0157,0.0131,0.0135,0.013,0.0102,0.0103,0.0098,0.0091,0.0053,0.0046,0.0076,0.0018,0.0011,-0.0006,0.0009,-0.0019,-0.0022,-0.0057,-0.0056,-0.0056,0.0008,0,0,0,0,0,0,0.0159,0.0157,0.0161,0.0136,0.0131,0.0125,0.0103,0.0097,0.0089,0.0086,0.005,0.0043,0.0018,-0.0002,-0.0008,0.0005,-0.0024,-0.0058,-0.0057,-0.0056,0.0006,0.0011,0.0016,0,0,0,0,0,0.016,0.017,0.0162,0.016,0.0137,0.0126,0.0121,0.0099,0.0089,0.0091,0.0065,0.0045,-0.0001,-0.0003,-0.0011,0.0002,-0.0058,-0.0057,-0.0056,0.0004,0.001,0.0016,0,0,0,0,0,0,0.0179,0.0167,0.0157,0.0163,0.0149,0.0121,0.0119,0.0105,0.0086,0.0084,0.0048,0.004,0.0029,0.0006,0.0005,-0.0007,-0.0032,-0.0033,0.0016,0.0022,0.0026,0.0043,-0.0025,0,0,0,0,0,0.0186,0.0193,0.0173,0.0177,0.0173,0.0148,0.014,0.0127,0.0106,0.0098,0.0072,0.0046,0.0026,0.0018,-0.0007,-0.0012,-0.0032,-0.0009,-0.0004,0.0001,0.0009,-0.0004,0.0001,-0.0052,-0.0052,-0.0053,0,0,0.0191,0.0188,0.0189,0.0182,0.0168,0.0173,0.0143,0.0138,0.0142,0.0094,0.0091,0.006,0.0027,0.002,0.0014,0.0005,0.0004,0.0002,0.0006,0.0012,-0.0003,0.0003,0.0007,-0.0052,-0.0052,-0.0052,0,0,0.0214,0.0206,0.0221,0.0216,0.0206,0.0192,0.0195,0.0173,0.0164,0.0155,0.0123,0.0104,0.0072,0.0055,0.0041,0.006,0.0027,0.0051,0.0095,0.0082,0.0086,0.009,0.0066,0.0067,0.0058,0.0058,0.0058,0,0.022,0.0241,0.0222,0.0237,0.0242,0.0207,0.0227,0.0211,0.0186,0.0187,0.0163,0.0122,0.0091,0.0088,0.0093,0.0073,0.0056,0.0076,0.009,0.0093,0.0096,0.007,0.0071,0.0061,0.0061,0.0061,0.006,0,0.0256,0.0272,0.0282,0.0294,0.0293,0.0304,0.0285,0.0282,0.0264,0.0248,0.0236,0.0189,0.0171,0.0154,0.0128,0.0135,0.0113,0.0095,0.0078,0.0105,0.0076,0.0076,0.0066,0.0065,0.0064,0.0063,0,0,0.028,0.0304,0.031,0.0333,0.0329,0.0338,0.0344,0.0348,0.0364,0.0322,0.0336,0.029,0.0264,0.0247,0.0209,0.0192,0.0189,0.0158,0.0155,0.0141,0.0155,0.0107,0.0101,0.0176,0.0176,0.0177,0.0125,0,0.0318,0.037,0.0367,0.0415,0.0442,0.0421,0.0437,0.0433,0.0416,0.0417,0.0364,0.0357,0.03,0.0295,0.0269,0.0219,0.0191,0.0204,0.0125,0.0122,0.0082,0.01,0.0131,0.0085,0.0124,0.0124,0.0124,0,0.036,0.0395,0.0454,0.0498,0.0507,0.053,0.056,0.0568,0.0551,0.0538,0.0511,0.0463,0.0436,0.0375,0.0303,0.0317,0.024,0.0186,0.0183,0.0117,0.0074,0.0064,0.0082,0.0122,0.0123,0.0123,0.0123,0,0.0407,0.0457,0.0515,0.0528,0.0565,0.0594,0.0612,0.0612,0.0641,0.0618,0.0637,0.0571,0.0559,0.0464,0.0346,0.0332,0.0253,0.0221,0.0097,0.0092,0.0092,0.0086,0.0152,0.0152,0.0152,0.0152,0.0153,0,0.0457,0.0505,0.0548,0.0583,0.0662,0.066,0.0732,0.0733,0.0751,0.0811,0.0714,0.0745,0.0582,0.051,0.0384,0.0248,0.0284,0.0108,0.008,0.0112,0.011,0.0121,0.0118,0.0151,0.0151,0.0151,0.0152,0,0.0504,0.0529,0.0602,0.0661,0.069,0.0747,0.0825,0.0872,0.0881,0.0954,0.0956,0.0888,0.0807,0.0623,0.0467,0.0312,0.0174,0.0103,0.0141,0.0118,0.0009,0.001,-0.0027,-0.0029,-0.0031,-0.0032,-0.0033,0,0.0534,0.0577,0.0666,0.0722,0.0758,0.0842,0.0904,0.0936,0.1001,0.1065,0.1114,0.1039,0.1008,0.0736,0.0462,0.0212,0.0174,0.0034,0.0002,0.0016,-0.0008,-0.0004,-0.0001,0.0026,0.0026,0.0025,0.0025,0,0.0596,0.0625,0.0687,0.0802,0.0884,0.098,0.1078,0.1154,0.1214,0.1282,0.1365,0.1342,0.1081,0.0826,0.0436,0.0266,0.0076,0.0013,0.0041,0.0059,0.006,0.0038,0.0041,0.002,0.0021,0.0021,0.0021,0.0021,0.0643,0.0698,0.0782,0.089,0.0986,0.1117,0.1211,0.1323,0.1451,0.1557,0.1534,0.1496,0.1185,0.0699,0.0392,0.005,0.0066,-0.0073,-0.0068,-0.0064,-0.0056,-0.0059,-0.012,-0.012,-0.0121,-0.0121,-0.0121,0,0.0702,0.0769,0.0868,0.1001,0.1104,0.1151,0.1325,0.1414,0.1582,0.1655,0.17,0.1399,0.1102,0.076,0.026,-0.0054,-0.0063,-0.0156,-0.0092,-0.0085,-0.008,-0.0071,-0.014,-0.0141,-0.0142,-0.0143,0,0,0.074,0.0841,0.0891,0.1075,0.1169,0.1324,0.1428,0.1563,0.165,0.1716,0.1687,0.1601,0.1195,0.0822,0.0423,0.0147,0.0097,0.0084,0.0132,0.0262,0.0271,-0.0001,0.0023,0,0,0,0,0]}],[{"header":{"parameterUnit":"m.s-1","parameterCategory":2,"la1":30.2991,"la2":30.254,"lo1":-89.0895,"lo2":-89.0444,"dy":0.0017,"dx":0.0017,"nx":28,"ny":28,"refTime":"2024-04-23T09:00:00:Z","depth":"4","parameterNumber":2,"parameterNumberName":"U-component_of_CURRENTS"},"data":[0,0,0,0,0,0,0,0,0,0,0,0,0,0,0,0,0,0,0,0,0,0,0,0,0,0,0,0,0,0,0,0,0,0,0,0,0,0,0,0,0,0,0,0,0,0,0,0,0,0,0,0,0,0,0,0,0,0,0.1649,0.1649,0,0.1694,0.1694,0.1695,0.1741,0.1742,0.1743,0.1744,0.1808,0.1809,0.181,0,0,0,0,0,0,0,0,0,0,0,0,0,0.1596,0.1597,0.1648,0.1649,0.165,0.1694,0.1694,0.1695,0.1741,0.1742,0.1743,0.1744,0.1808,0.1809,0.181,0,0,0,0,0,0,0,0,0,0,0,0,0,0.1626,0.1597,0.1648,0.168,0.1684,0.1694,0.1694,0.1695,0.1741,0.1742,0.1744,0.1745,0.1807,0.1809,0.181,0.1793,0,0,0.1814,0.1815,0,0,0,0,0,0,0,0,0.1624,0.1627,0.1675,0.1678,0.1682,0.1715,0.17,0.173,0.1741,0.1717,0.1744,0.1745,0.1779,0.1783,0.1785,0.1796,0.1799,0.1814,0.1815,0.1816,0.1816,0,0,0,0,0,0,0,0.1622,0.1626,0.1664,0.1675,0.168,0.1691,0.1696,0.1705,0.1739,0.1719,0.1723,0.1731,0.1781,0.1784,0.1787,0.18,0.1814,0.1816,0.1817,0.1817,0.1892,0.1893,0,0,0,0,0,0,0.162,0.1624,0.1663,0.1666,0.1658,0.1691,0.1697,0.1701,0.1739,0.1746,0.173,0.1733,0.1781,0.1786,0.179,0.1867,0.1816,0.1817,0.1818,0.1891,0.1892,0.1893,0,0,0,0,0,0,0.1619,0.1623,0.1661,0.1648,0.1654,0.169,0.1695,0.1702,0.1743,0.1747,0.1755,0.1769,0.1782,0.1788,0.1829,0.1866,0.1818,0.1819,0.1889,0.1891,0.1893,0.196,0,0,0,0,0,0,0.1617,0.1622,0.1641,0.1648,0.1655,0.1689,0.1695,0.1702,0.1744,0.175,0.1782,0.1788,0.1783,0.1827,0.1831,0.1867,0.182,0.1888,0.189,0.1892,0.1956,0.1963,0.197,0,0,0,0,0,0.1615,0.1627,0.1642,0.1648,0.1674,0.169,0.1695,0.1723,0.1746,0.1765,0.1791,0.1789,0.1844,0.183,0.1833,0.1871,0.1887,0.1889,0.1892,0.1953,0.1962,0.197,0,0,0,0,0,0,0.1613,0.1633,0.165,0.1669,0.1691,0.1699,0.1725,0.1744,0.1778,0.1796,0.1803,0.1809,0.1861,0.1852,0.1837,0.1897,0.1865,0.1868,0.191,0.1919,0.1925,0.194,0.1821,0,0,0,0,0,0.1622,0.1641,0.1658,0.1679,0.1693,0.1718,0.1736,0.1754,0.1778,0.1796,0.182,0.1843,0.1866,0.1884,0.1898,0.1929,0.1938,0.1955,0.1962,0.1968,0.1982,0.203,0.2043,0.1902,0.1902,0.1902,0,0,0.1627,0.1643,0.1655,0.1682,0.1704,0.1725,0.1733,0.1768,0.1797,0.1796,0.1855,0.1873,0.188,0.1919,0.1941,0.1923,0.2011,0.1971,0.1977,0.1987,0.2034,0.2048,0.2061,0.1904,0.1903,0.1903,0,0,0.1634,0.1664,0.168,0.1703,0.1742,0.1754,0.1774,0.1805,0.1836,0.1879,0.1894,0.1936,0.1964,0.1981,0.199,0.2042,0.2048,0.2052,0.21,0.2147,0.2159,0.217,0.2192,0.2205,0.2053,0.2053,0.2053,0,0.1646,0.1666,0.1689,0.1711,0.1738,0.1773,0.1798,0.1828,0.1872,0.1901,0.1908,0.198,0.1991,0.2044,0.2067,0.206,0.2084,0.2068,0.2158,0.2169,0.2179,0.2199,0.2212,0.2057,0.2056,0.2056,0.2056,0,0.1654,0.1688,0.1702,0.1743,0.1772,0.1803,0.1842,0.1884,0.1926,0.1954,0.2029,0.205,0.2096,0.2106,0.2106,0.2187,0.218,0.2164,0.2139,0.2198,0.2214,0.2227,0.2062,0.2061,0.2059,0.2059,0,0,0.1639,0.1697,0.1709,0.1731,0.1797,0.181,0.1874,0.1928,0.1975,0.203,0.209,0.2146,0.2181,0.2195,0.2211,0.2253,0.2342,0.2252,0.2253,0.2279,0.2447,0.2282,0.2279,0.2356,0.2359,0.2361,0.2427,0,0.1647,0.1687,0.1721,0.1768,0.1791,0.1847,0.1897,0.1955,0.2015,0.2079,0.2131,0.2194,0.2209,0.2246,0.2299,0.2339,0.238,0.2325,0.2382,0.2383,0.2234,0.229,0.2369,0.2436,0.2439,0.2441,0.2442,0,0.164,0.1674,0.1721,0.1779,0.1796,0.1837,0.1925,0.1973,0.2072,0.2124,0.2212,0.2253,0.2351,0.2336,0.2458,0.2433,0.2455,0.2469,0.2471,0.2305,0.2242,0.2366,0.2464,0.2463,0.2461,0.2459,0.2458,0,0.1597,0.1665,0.1704,0.1728,0.1804,0.1847,0.1899,0.1997,0.205,0.217,0.222,0.2336,0.2402,0.247,0.2526,0.2512,0.2629,0.2599,0.2465,0.2453,0.2553,0.254,0.2669,0.2669,0.2669,0.2669,0.2669,0,0.1569,0.1601,0.1694,0.1711,0.1763,0.1833,0.1902,0.1973,0.2087,0.2143,0.2254,0.2314,0.2446,0.252,0.2556,0.2554,0.2662,0.2485,0.2465,0.2576,0.2566,0.2561,0.2547,0.2671,0.2671,0.267,0.267,0,0.1496,0.1565,0.1605,0.1703,0.174,0.1778,0.1892,0.1931,0.2064,0.2145,0.2189,0.2338,0.2441,0.2529,0.2633,0.257,0.2588,0.2551,0.2667,0.2651,0.2372,0.2361,0.2407,0.2402,0.2398,0.2394,0.2391,0,0.1451,0.1469,0.1579,0.1606,0.1655,0.1729,0.1771,0.191,0.1958,0.2135,0.2155,0.2303,0.2382,0.2403,0.2512,0.2554,0.2523,0.2495,0.243,0.2372,0.2349,0.2345,0.2341,0.2384,0.2383,0.2382,0.2381,0,0.1352,0.1411,0.1438,0.1511,0.1565,0.16,0.1683,0.1717,0.1866,0.2005,0.2077,0.213,0.2229,0.2314,0.2359,0.2384,0.2496,0.2449,0.2457,0.2396,0.2345,0.2325,0.2326,0.2366,0.2368,0.2369,0.237,0,0.1274,0.1269,0.1328,0.1379,0.1436,0.1449,0.1512,0.1575,0.1651,0.1866,0.1892,0.2053,0.221,0.2226,0.2274,0.2284,0.2248,0.2153,0.2176,0.2194,0.2093,0.1995,0.1901,0,0,0,0,0,0.1191,0.1174,0.1192,0.1229,0.1281,0.1334,0.1432,0.1504,0.1674,0.1675,0.1784,0.187,0.1949,0.2042,0.2013,0.2173,0.2248,0.2124,0.2147,0.2282,0.23,0.22,0,0,0,0,0,0,0.1133,0.1138,0.1141,0.1097,0.1111,0.1151,0.122,0.1335,0.1355,0.1546,0.1614,0.1746,0.1868,0.1961,0.198,0.2004,0.1973,0.2237,0.2231,0.2273,0.2288,0.2302,0.2206,0,0,0,0,0]},{"header":{"parameterUnit":"m.s-1","parameterCategory":2,"la1":30.2991,"la2":30.254,"lo1":-89.0895,"lo2":-89.0444,"dy":0.0017,"dx":0.0017,"nx":28,"ny":28,"refTime":"2024-04-23T09:00:00:Z","depth":"4","parameterNumber":3,"parameterNumberName":"V-component_of_CURRENTS"},"data":[0,0,0,0,0,0,0,0,0,0,0,0,0,0,0,0,0,0,0,0,0,0,0,0,0,0,0,0,0,0,0,0,0,0,0,0,0,0,0,0,0,0,0,0,0,0,0,0,0,0,0,0,0,0,0,0,0,0,0.0112,0.0112,0,0.0082,0.0082,0.0081,0.0064,0.0063,0.0063,0.0063,0.0024,0.0023,0.0022,0,0,0,0,0,0,0,0,0,0,0,0,0,0.0124,0.0124,0.0112,0.0112,0.0111,0.0082,0.0082,0.0081,0.0064,0.0063,0.0063,0.0063,0.0024,0.0023,0.0022,0,0,0,0,0,0,0,0,0,0,0,0,0,0.0109,0.0124,0.0112,0.0099,0.0097,0.0082,0.0082,0.0081,0.0064,0.0063,0.0063,0.0063,0.0025,0.0023,0.0022,0.0016,0,0,0.0017,0.0017,0,0,0,0,0,0,0,0,0.011,0.0109,0.0101,0.01,0.0098,0.0076,0.0071,0.0059,0.0064,0.0077,0.0063,0.0063,0.004,0.0038,0.0033,0.0014,0.0013,0.0017,0.0016,0.0016,0.0015,0,0,0,0,0,0,0,0.0111,0.011,0.01,0.0101,0.0099,0.0084,0.0082,0.0069,0.006,0.0075,0.0074,0.007,0.004,0.0034,0.0032,0.0012,0.0017,0.0016,0.0015,0.0015,-0.0004,-0.0004,0,0,0,0,0,0,0.0116,0.0111,0.0101,0.0099,0.0103,0.0084,0.0081,0.0083,0.006,0.0056,0.007,0.007,0.0037,0.0034,0.003,0.0034,0.0016,0.0015,0.0014,-0.0005,-0.0004,-0.0004,0,0,0,0,0,0,0.0116,0.0116,0.0103,0.0104,0.0101,0.0084,0.0086,0.0083,0.0081,0.0056,0.0052,0.0072,0.0037,0.0032,0.0023,0.0032,0.0014,0.0013,-0.0005,-0.0005,-0.0004,0.0033,0,0,0,0,0,0,0.0117,0.0116,0.012,0.0104,0.0101,0.01,0.0086,0.0082,0.0078,0.0077,0.0056,0.0052,0.0036,0.0026,0.0022,0.0029,0.0012,-0.0006,-0.0005,-0.0004,0.0031,0.0035,0.0037,0,0,0,0,0,0.0118,0.0125,0.0121,0.012,0.0107,0.0101,0.0098,0.0085,0.0078,0.0081,0.0066,0.0053,0.0027,0.0025,0.002,0.0027,-0.0006,-0.0005,-0.0004,0.003,0.0034,0.0037,0,0,0,0,0,0,0.0129,0.0123,0.0118,0.0123,0.0115,0.0098,0.0098,0.0089,0.0079,0.0078,0.0055,0.0051,0.0045,0.0032,0.003,0.0024,0.0009,0.0009,0.0037,0.004,0.0043,0.0045,0.001,0,0,0,0,0,0.0135,0.0142,0.013,0.0134,0.0131,0.0116,0.0112,0.0104,0.0092,0.0087,0.0072,0.0057,0.0044,0.0039,0.0025,0.0023,-0.0004,0.0025,0.0028,0.0031,0.0029,0.0,0.0,-0.0001,-0.0001,-0.0002,0,0,0.0139,0.0138,0.014,0.0137,0.0129,0.0133,0.0113,0.0112,0.0114,0.0085,0.0084,0.0066,0.0045,0.0041,0.0038,0.0032,0.0017,0.0032,0.0034,0.0031,0.0001,0.0001,0.0001,-0.0001,-0.0001,-0.0001,0,0,0.0153,0.0151,0.0162,0.0161,0.0155,0.0147,0.0149,0.0136,0.013,0.0126,0.0105,0.0091,0.0076,0.0061,0.0051,0.0063,0.0032,0.0063,0.0082,0.0054,0.0054,0.0054,0.0017,0.0013,0.0067,0.0067,0.0067,0,0.0158,0.0174,0.0163,0.0174,0.0178,0.0157,0.017,0.016,0.0145,0.0143,0.0132,0.0102,0.0084,0.0074,0.0078,0.007,0.0046,0.0071,0.0058,0.0057,0.0056,0.0019,0.0014,0.0069,0.0069,0.0069,0.0069,0,0.0181,0.0194,0.0201,0.0211,0.0212,0.0221,0.0208,0.0206,0.0196,0.0183,0.017,0.0139,0.0123,0.0115,0.01,0.0087,0.007,0.0063,0.0049,0.0058,0.0018,0.0013,0.0072,0.0071,0.0071,0.007,0,0,0.0193,0.0214,0.0218,0.0239,0.0236,0.0246,0.0246,0.0245,0.0255,0.0223,0.0226,0.0192,0.0172,0.0159,0.0135,0.0106,0.0075,0.0086,0.0083,0.0049,0.0006,-0.0,-0.0008,0.0068,0.0067,0.0067,-0.002,0,0.0217,0.0255,0.0255,0.0292,0.0313,0.03,0.0309,0.0303,0.029,0.0285,0.0237,0.0232,0.019,0.019,0.0151,0.0099,0.0062,0.0099,0.0001,-0.0002,-0.0008,-0.0013,0.0065,-0.0025,-0.0026,-0.0027,-0.0028,0,0.0243,0.027,0.0313,0.0352,0.036,0.0378,0.0399,0.0405,0.0381,0.0371,0.0338,0.0299,0.025,0.0219,0.0113,0.014,0.0076,0.0025,0.0021,-0.0002,-0.0018,-0.0036,-0.0039,-0.0038,-0.0037,-0.0036,-0.0036,0,0.0273,0.0313,0.0357,0.0368,0.0401,0.0422,0.0439,0.0435,0.0457,0.0429,0.0436,0.0356,0.0335,0.0234,0.0122,0.0121,0.0,-0.0011,-0.0085,-0.0087,-0.0072,-0.0071,-0.0089,-0.0089,-0.0089,-0.0089,-0.0088,0,0.0303,0.0341,0.0381,0.0407,0.0472,0.0474,0.0531,0.0532,0.054,0.0569,0.0491,0.0484,0.034,0.025,0.0136,0.0005,0.0008,-0.0088,-0.0109,-0.0055,-0.005,-0.0077,-0.0074,-0.0092,-0.0091,-0.0091,-0.009,0,0.0332,0.0353,0.0412,0.0463,0.0491,0.0538,0.0608,0.0642,0.0643,0.0674,0.0671,0.0584,0.0463,0.0307,0.0143,0.0042,-0.0091,-0.0138,-0.0075,-0.009,-0.0167,-0.0161,-0.0232,-0.0233,-0.0234,-0.0234,-0.0235,0,0.0349,0.0383,0.0461,0.0507,0.0539,0.0612,0.0664,0.0694,0.0736,0.0734,0.0752,0.0647,0.0566,0.0327,0.0154,-0.0078,-0.0108,-0.0184,-0.0179,-0.0168,-0.0181,-0.0175,-0.0168,-0.0236,-0.0236,-0.0237,-0.0237,0,0.0386,0.0413,0.0463,0.0558,0.0627,0.0707,0.0785,0.0825,0.0854,0.0855,0.0821,0.0685,0.0545,0.0337,0.0157,-0.0009,-0.0141,-0.0193,-0.0192,-0.0188,-0.0174,-0.0185,-0.0178,-0.0239,-0.0239,-0.0239,-0.0239,0,0.0414,0.0454,0.0519,0.0605,0.0691,0.0773,0.0815,0.0865,0.0905,0.0903,0.0885,0.0722,0.0627,0.0373,0.0206,0.0039,-0.0006,-0.0062,-0.0069,-0.0069,0.0001,0.0044,0.0025,0,0,0,0,0,0.0436,0.0485,0.0563,0.065,0.0731,0.0787,0.0882,0.0914,0.0945,0.0934,0.0916,0.0782,0.0526,0.0413,0.0246,0.0178,-0.0045,-0.0025,-0.0115,-0.0254,-0.0251,-0.0199,0,0,0,0,0,0,0.0452,0.0525,0.0563,0.067,0.0733,0.083,0.0891,0.0917,0.092,0.092,0.0792,0.0729,0.0485,0.0618,0.0237,0.0185,0.0103,-0.0142,-0.0146,-0.0256,-0.0253,-0.0251,-0.0196,0,0,0,0,0]}]]